NFC9313 EGPD-ENBR

Flight info

Callsign NFC9313
Flight time 1h 21m
Altitude 17000
Route ADN ADN DCT BEREP DCT MODNI
Aircraft AT76/M-SDFGIRY/S

Departure

Time 2026-04-29 09:06
Airport Aberdeen International Airport (EGPD)

Arrival

Time 2026-04-29 10:27
Airport Bergen Airport, Flesland (ENBR)
Time Latitude Longitude Altitude Speed Heading
2026-04-29 09:02 57.21010 -2.20379 244 ft 0 kts 158°
2026-04-29 09:05 57.20973 -2.20351 244 ft 27 kts 158°
2026-04-29 09:05 57.20583 -2.20062 246 ft 89 kts 158°
2026-04-29 09:06 57.19889 -2.19530 372 ft 121 kts 156°
2026-04-29 09:06 57.19044 -2.18799 528 ft 147 kts 154°
2026-04-29 09:06 57.18097 -2.17846 982 ft 154 kts 153°
2026-04-29 09:06 57.17209 -2.16793 1697 ft 154 kts 137°
2026-04-29 09:07 57.16858 -2.14886 2213 ft 174 kts 79°
2026-04-29 09:07 57.17752 -2.13400 2695 ft 187 kts 10°
2026-04-29 09:07 57.19002 -2.13668 3348 ft 182 kts 340°
2026-04-29 09:07 57.20159 -2.14675 3885 ft 187 kts 330°
2026-04-29 09:08 57.21193 -2.16006 4617 ft 175 kts 323°
2026-04-29 09:08 57.22114 -2.17453 5164 ft 175 kts 326°
2026-04-29 09:08 57.23118 -2.18678 5775 ft 172 kts 330°
2026-04-29 09:08 57.24138 -2.19760 6391 ft 167 kts 337°
2026-04-29 09:09 57.25173 -2.20688 7011 ft 164 kts 338°
2026-04-29 09:09 57.26202 -2.21606 7528 ft 164 kts 336°
2026-04-29 09:09 57.27241 -2.22605 7965 ft 169 kts 335°
2026-04-29 09:09 57.28281 -2.23659 8459 ft 172 kts 333°
2026-04-29 09:10 57.29313 -2.24766 8950 ft 172 kts 334°
2026-04-29 09:10 57.30383 -2.25710 9324 ft 171 kts 359°
2026-04-29 09:10 57.31454 -2.25107 9782 ft 161 kts 41°
2026-04-29 09:10 57.32340 -2.23818 10244 ft 162 kts 45°
2026-04-29 09:11 57.33155 -2.22380 10704 ft 162 kts 50°
2026-04-29 09:11 57.33659 -2.21358 11000 ft 164 kts 52°
2026-04-29 09:11 57.34411 -2.19736 11412 ft 167 kts 53°
2026-04-29 09:11 57.35402 -2.17537 12004 ft 168 kts 53°
2026-04-29 09:12 57.36151 -2.15879 12491 ft 168 kts 53°
2026-04-29 09:12 57.36908 -2.14216 12930 ft 170 kts 53°
2026-04-29 09:12 57.37688 -2.12500 13329 ft 175 kts 53°
2026-04-29 09:12 57.38220 -2.11328 13634 ft 176 kts 53°
2026-04-29 09:13 57.39018 -2.09593 14112 ft 177 kts 53°
2026-04-29 09:13 57.39821 -2.07861 14563 ft 177 kts 53°
2026-04-29 09:13 57.40627 -2.06121 14964 ft 180 kts 53°
2026-04-29 09:13 57.41459 -2.04323 15308 ft 185 kts 53°
2026-04-29 09:14 57.42298 -2.02514 15784 ft 184 kts 52°
2026-04-29 09:14 57.43134 -2.00707 16235 ft 185 kts 52°
2026-04-29 09:14 57.43961 -1.98924 16689 ft 184 kts 52°
2026-04-29 09:14 57.44820 -1.97062 16946 ft 196 kts 52°
2026-04-29 09:15 57.45736 -1.95073 16994 ft 214 kts 52°
2026-04-29 09:15 57.46744 -1.92888 17019 ft 231 kts 52°
2026-04-29 09:15 57.47820 -1.90554 17020 ft 244 kts 51°
2026-04-29 09:15 57.48952 -1.88101 17029 ft 255 kts 51°
2026-04-29 09:16 57.50118 -1.85574 17178 ft 257 kts 51°
2026-04-29 09:16 57.51282 -1.83044 17369 ft 259 kts 51°
2026-04-29 09:16 57.52469 -1.80459 17447 ft 266 kts 51°
2026-04-29 09:16 57.53684 -1.77807 17480 ft 272 kts 51°
2026-04-29 09:17 57.54924 -1.75107 17488 ft 277 kts 51°
2026-04-29 09:17 57.56184 -1.72356 17496 ft 281 kts 51°
2026-04-29 09:17 57.57459 -1.69570 17500 ft 284 kts 51°
2026-04-29 09:17 57.58742 -1.66759 17504 ft 286 kts 51°
2026-04-29 09:18 57.60038 -1.63916 17505 ft 288 kts 51°
2026-04-29 09:18 57.61341 -1.61058 17506 ft 290 kts 51°
2026-04-29 09:18 57.62646 -1.58187 17506 ft 291 kts 51°
2026-04-29 09:18 57.63958 -1.55309 17506 ft 291 kts 51°
2026-04-29 09:19 57.65269 -1.52415 17504 ft 292 kts 51°
2026-04-29 09:19 57.66583 -1.49518 17505 ft 293 kts 51°
2026-04-29 09:19 57.67903 -1.46609 17506 ft 293 kts 51°
2026-04-29 09:19 57.69219 -1.43696 17515 ft 294 kts 51°
2026-04-29 09:20 57.70538 -1.40773 17513 ft 294 kts 51°
2026-04-29 09:20 57.71857 -1.37852 17513 ft 294 kts 51°
2026-04-29 09:20 57.73179 -1.34917 17513 ft 295 kts 51°
2026-04-29 09:20 57.74501 -1.31982 17513 ft 295 kts 51°
2026-04-29 09:21 57.75820 -1.29048 17513 ft 295 kts 51°
2026-04-29 09:21 57.77141 -1.26102 17514 ft 295 kts 51°
2026-04-29 09:21 57.78464 -1.23159 17513 ft 295 kts 51°
2026-04-29 09:21 57.79781 -1.20213 17521 ft 295 kts 51°
2026-04-29 09:22 57.81102 -1.17266 17519 ft 295 kts 50°
2026-04-29 09:22 57.82419 -1.14320 17516 ft 295 kts 51°
2026-04-29 09:22 57.83716 -1.11406 17516 ft 295 kts 51°
2026-04-29 09:22 57.85033 -1.08456 17516 ft 295 kts 51°
2026-04-29 09:23 57.86348 -1.05502 17517 ft 295 kts 51°
2026-04-29 09:23 57.87659 -1.02546 17516 ft 295 kts 51°
2026-04-29 09:23 57.88972 -0.99593 17516 ft 294 kts 51°
2026-04-29 09:23 57.90283 -0.96637 17522 ft 294 kts 51°
2026-04-29 09:24 57.91594 -0.93673 17518 ft 294 kts 51°
2026-04-29 09:24 57.92903 -0.90712 17517 ft 295 kts 50°
2026-04-29 09:24 57.94215 -0.87750 17517 ft 295 kts 50°
2026-04-29 09:24 57.95530 -0.84772 17518 ft 295 kts 50°
2026-04-29 09:25 57.96840 -0.81792 17517 ft 296 kts 50°
2026-04-29 09:25 57.98152 -0.78806 17518 ft 296 kts 50°
2026-04-29 09:25 57.99467 -0.75821 17519 ft 296 kts 50°
2026-04-29 09:25 58.00780 -0.72832 17522 ft 296 kts 50°
2026-04-29 09:26 58.02092 -0.69832 17526 ft 296 kts 50°
2026-04-29 09:26 58.03403 -0.66836 17525 ft 296 kts 50°
2026-04-29 09:26 58.04718 -0.63837 17522 ft 296 kts 50°
2026-04-29 09:26 58.06029 -0.60837 17522 ft 296 kts 50°
2026-04-29 09:27 58.07340 -0.57825 17522 ft 297 kts 51°
2026-04-29 09:27 58.08648 -0.54819 17521 ft 294 kts 51°
2026-04-29 09:27 58.09922 -0.51898 17520 ft 283 kts 51°
2026-04-29 09:27 58.11157 -0.49060 17522 ft 275 kts 51°
2026-04-29 09:28 58.12357 -0.46298 17520 ft 269 kts 51°
2026-04-29 09:28 58.13534 -0.43582 17522 ft 265 kts 51°
2026-04-29 09:28 58.14693 -0.40899 17523 ft 262 kts 51°
2026-04-29 09:28 58.15841 -0.38243 17524 ft 259 kts 51°
2026-04-29 09:29 58.16977 -0.35614 17526 ft 257 kts 51°
2026-04-29 09:29 58.19216 -0.30424 17526 ft 255 kts 51°
2026-04-29 09:29 58.20333 -0.27828 17523 ft 254 kts 50°
2026-04-29 09:30 58.21450 -0.25233 17523 ft 254 kts 50°
2026-04-29 09:30 58.22566 -0.22643 17525 ft 253 kts 50°
2026-04-29 09:30 58.23676 -0.20054 17525 ft 253 kts 50°
2026-04-29 09:30 58.24787 -0.17465 17525 ft 253 kts 50°
2026-04-29 09:31 58.25896 -0.14874 17522 ft 253 kts 50°
2026-04-29 09:31 58.27003 -0.12284 17522 ft 253 kts 50°
2026-04-29 09:31 58.28112 -0.09693 17522 ft 253 kts 50°
2026-04-29 09:31 58.29220 -0.07095 17523 ft 253 kts 50°
2026-04-29 09:32 58.30324 -0.04507 17522 ft 253 kts 50°
2026-04-29 09:32 58.31433 -0.01907 17527 ft 253 kts 50°
2026-04-29 09:32 58.32537 0.00695 17527 ft 253 kts 50°
2026-04-29 09:32 58.33642 0.03296 17526 ft 253 kts 50°
2026-04-29 09:33 58.34746 0.05892 17525 ft 253 kts 50°
2026-04-29 09:33 58.35849 0.08492 17525 ft 252 kts 50°
2026-04-29 09:33 58.36951 0.11097 17522 ft 252 kts 50°
2026-04-29 09:33 58.38051 0.13696 17522 ft 252 kts 50°
2026-04-29 09:34 58.39150 0.16297 17521 ft 252 kts 50°
2026-04-29 09:34 58.40250 0.18900 17521 ft 252 kts 50°
2026-04-29 09:34 58.41350 0.21508 17522 ft 252 kts 50°
2026-04-29 09:34 58.42447 0.24115 17522 ft 252 kts 50°
2026-04-29 09:35 58.43546 0.26722 17528 ft 252 kts 50°
2026-04-29 09:35 58.44643 0.29332 17528 ft 252 kts 50°
2026-04-29 09:35 58.45739 0.31947 17527 ft 252 kts 50°
2026-04-29 09:35 58.46834 0.34554 17527 ft 252 kts 50°
2026-04-29 09:36 58.47930 0.37171 17524 ft 252 kts 50°
2026-04-29 09:36 58.49014 0.39758 17524 ft 253 kts 49°
2026-04-29 09:36 58.50111 0.42381 17524 ft 253 kts 50°
2026-04-29 09:36 58.51211 0.45019 17525 ft 254 kts 50°
2026-04-29 09:37 58.52313 0.47657 17523 ft 254 kts 50°
2026-04-29 09:37 58.53430 0.50342 17526 ft 254 kts 50°
2026-04-29 09:37 58.54532 0.52990 17527 ft 254 kts 49°
2026-04-29 09:37 58.55620 0.55605 17527 ft 255 kts 50°
2026-04-29 09:38 58.56722 0.58261 17529 ft 255 kts 50°
2026-04-29 09:38 58.57823 0.60920 17528 ft 255 kts 50°
2026-04-29 09:38 58.58926 0.63583 17533 ft 255 kts 49°
2026-04-29 09:38 58.60029 0.66240 17530 ft 254 kts 49°
2026-04-29 09:39 58.61127 0.68897 17528 ft 254 kts 49°
2026-04-29 09:39 58.62224 0.71558 17527 ft 254 kts 49°
2026-04-29 09:39 58.63318 0.74210 17527 ft 253 kts 49°
2026-04-29 09:39 58.64411 0.76863 17527 ft 253 kts 49°
2026-04-29 09:40 58.65501 0.79519 17530 ft 253 kts 49°
2026-04-29 09:40 58.66590 0.82170 17529 ft 253 kts 49°
2026-04-29 09:40 58.67680 0.84819 17530 ft 253 kts 49°
2026-04-29 09:40 58.68768 0.87471 17530 ft 253 kts 49°
2026-04-29 09:41 58.69855 0.90124 17524 ft 253 kts 49°
2026-04-29 09:41 58.70940 0.92780 17525 ft 253 kts 49°
2026-04-29 09:41 58.72026 0.95436 17525 ft 253 kts 49°
2026-04-29 09:41 58.73114 0.98096 17525 ft 253 kts 49°
2026-04-29 09:42 58.74197 1.00753 17528 ft 253 kts 50°
2026-04-29 09:42 58.75281 1.03418 17529 ft 253 kts 50°
2026-04-29 09:42 58.76367 1.06085 17529 ft 253 kts 49°
2026-04-29 09:42 58.77451 1.08749 17530 ft 253 kts 50°
2026-04-29 09:43 58.78535 1.11420 17528 ft 253 kts 50°
2026-04-29 09:43 58.79615 1.14088 17528 ft 253 kts 50°
2026-04-29 09:43 58.80698 1.16763 17527 ft 253 kts 49°
2026-04-29 09:43 58.81781 1.19434 17527 ft 253 kts 50°
2026-04-29 09:44 58.82865 1.22115 17528 ft 253 kts 50°
2026-04-29 09:44 58.83929 1.24755 17527 ft 253 kts 50°
2026-04-29 09:44 58.85009 1.27441 17533 ft 253 kts 49°
2026-04-29 09:44 58.86087 1.30111 17530 ft 252 kts 49°
2026-04-29 09:45 58.87164 1.32785 17527 ft 252 kts 49°
2026-04-29 09:45 58.88235 1.35457 17527 ft 251 kts 49°
2026-04-29 09:45 58.89305 1.38117 17527 ft 251 kts 49°
2026-04-29 09:45 58.90374 1.40783 17527 ft 251 kts 49°
2026-04-29 09:46 58.91440 1.43450 17528 ft 250 kts 49°
2026-04-29 09:46 58.92506 1.46113 17527 ft 250 kts 49°
2026-04-29 09:46 58.93572 1.48782 17527 ft 250 kts 49°
2026-04-29 09:46 58.94637 1.51448 17527 ft 250 kts 49°
2026-04-29 09:47 58.95701 1.54116 17527 ft 250 kts 49°
2026-04-29 09:47 58.96764 1.56787 17529 ft 250 kts 49°
2026-04-29 09:47 58.97826 1.59454 17529 ft 250 kts 49°
2026-04-29 09:47 58.98888 1.62129 17530 ft 250 kts 49°
2026-04-29 09:48 58.99948 1.64802 17532 ft 250 kts 50°
2026-04-29 09:48 59.01009 1.67473 17530 ft 250 kts 49°
2026-04-29 09:48 59.02069 1.70151 17532 ft 250 kts 49°
2026-04-29 09:48 59.03131 1.72843 17529 ft 251 kts 49°
2026-04-29 09:49 59.04246 1.75453 17530 ft 251 kts 45°
2026-04-29 09:49 59.05417 1.77952 17530 ft 250 kts 44°
2026-04-29 09:49 59.06602 1.80433 17530 ft 251 kts 44°
2026-04-29 09:49 59.07780 1.82933 17530 ft 251 kts 44°
2026-04-29 09:50 59.08952 1.85450 17525 ft 251 kts 45°
2026-04-29 09:50 59.10106 1.87939 17526 ft 251 kts 45°
2026-04-29 09:50 59.11279 1.90458 17527 ft 251 kts 45°
2026-04-29 09:50 59.12451 1.92986 17536 ft 251 kts 44°
2026-04-29 09:51 59.13622 1.95506 17528 ft 251 kts 44°
2026-04-29 09:51 59.14791 1.98028 17526 ft 250 kts 44°
2026-04-29 09:51 59.15957 2.00546 17525 ft 250 kts 44°
2026-04-29 09:51 59.17120 2.03059 17524 ft 250 kts 44°
2026-04-29 09:52 59.18282 2.05576 17523 ft 249 kts 44°
2026-04-29 09:52 59.19442 2.08086 17524 ft 249 kts 44°
2026-04-29 09:52 59.20602 2.10604 17524 ft 249 kts 44°
2026-04-29 09:52 59.21760 2.13119 17524 ft 249 kts 44°
2026-04-29 09:53 59.22917 2.15626 17527 ft 249 kts 44°
2026-04-29 09:53 59.24073 2.18142 17527 ft 249 kts 44°
2026-04-29 09:53 59.25230 2.20663 17524 ft 249 kts 44°
2026-04-29 09:53 59.26385 2.23179 17524 ft 249 kts 44°
2026-04-29 09:54 59.27539 2.25699 17525 ft 249 kts 44°
2026-04-29 09:54 59.28692 2.28217 17525 ft 249 kts 44°
2026-04-29 09:54 59.29845 2.30741 17528 ft 249 kts 44°
2026-04-29 09:54 59.31001 2.33268 17531 ft 250 kts 44°
2026-04-29 09:55 59.32161 2.35808 17531 ft 250 kts 44°
2026-04-29 09:55 59.33318 2.38353 17530 ft 251 kts 44°
2026-04-29 09:55 59.34482 2.40904 17530 ft 251 kts 44°
2026-04-29 09:55 59.35643 2.43459 17530 ft 251 kts 44°
2026-04-29 09:56 59.36806 2.46022 17528 ft 252 kts 44°
2026-04-29 09:56 59.37972 2.48589 17529 ft 252 kts 44°
2026-04-29 09:56 59.39136 2.51161 17529 ft 252 kts 44°
2026-04-29 09:56 59.40299 2.53726 17530 ft 252 kts 44°
2026-04-29 09:57 59.41463 2.56302 17530 ft 252 kts 44°
2026-04-29 09:57 59.42628 2.58885 17541 ft 252 kts 44°
2026-04-29 09:57 59.43790 2.61461 17534 ft 252 kts 44°
2026-04-29 09:57 59.44951 2.64038 17532 ft 251 kts 44°
2026-04-29 09:58 59.46107 2.66612 17525 ft 251 kts 44°
2026-04-29 09:58 59.47264 2.69181 17525 ft 251 kts 44°
2026-04-29 09:58 59.48416 2.71747 17524 ft 250 kts 44°
2026-04-29 09:58 59.49567 2.74313 17524 ft 250 kts 44°
2026-04-29 09:59 59.50719 2.76883 17524 ft 250 kts 44°
2026-04-29 09:59 59.51866 2.79449 17524 ft 250 kts 44°
2026-04-29 09:59 59.53016 2.82016 17524 ft 250 kts 44°
2026-04-29 09:59 59.54164 2.84589 17524 ft 250 kts 44°
2026-04-29 10:00 59.55311 2.87161 17522 ft 250 kts 44°
2026-04-29 10:00 59.56459 2.89734 17524 ft 250 kts 44°
2026-04-29 10:00 59.57603 2.92309 17527 ft 250 kts 43°
2026-04-29 10:00 59.58754 2.94889 17526 ft 251 kts 44°
2026-04-29 10:01 59.59907 2.97484 17525 ft 251 kts 44°
2026-04-29 10:01 59.61044 3.00048 17523 ft 252 kts 44°
2026-04-29 10:01 59.62196 3.02650 17522 ft 252 kts 44°
2026-04-29 10:01 59.63349 3.05258 17522 ft 252 kts 44°
2026-04-29 10:02 59.64502 3.07860 17524 ft 252 kts 44°
2026-04-29 10:02 59.65657 3.10479 17522 ft 252 kts 44°
2026-04-29 10:02 59.66811 3.13092 17521 ft 252 kts 44°
2026-04-29 10:02 59.67963 3.15708 17522 ft 252 kts 44°
2026-04-29 10:03 59.69116 3.18331 17522 ft 253 kts 44°
2026-04-29 10:03 59.70272 3.20955 17524 ft 253 kts 44°
2026-04-29 10:03 59.71035 3.22693 17523 ft 253 kts 44°
2026-04-29 10:03 59.72186 3.25322 17521 ft 253 kts 44°
2026-04-29 10:04 59.73357 3.27984 17531 ft 253 kts 44°
2026-04-29 10:04 59.74493 3.30580 17525 ft 252 kts 44°
2026-04-29 10:04 59.75643 3.33212 17523 ft 252 kts 44°
2026-04-29 10:04 59.76790 3.35843 17522 ft 252 kts 44°
2026-04-29 10:05 59.77936 3.38471 17522 ft 252 kts 44°
2026-04-29 10:05 59.79081 3.41103 17519 ft 252 kts 44°
2026-04-29 10:05 59.80225 3.43726 17519 ft 251 kts 44°
2026-04-29 10:05 59.81376 3.46374 17292 ft 259 kts 44°
2026-04-29 10:06 59.82593 3.49162 16941 ft 270 kts 44°
2026-04-29 10:06 59.83807 3.51973 16948 ft 266 kts 44°
2026-04-29 10:06 59.85008 3.54747 16957 ft 264 kts 44°
2026-04-29 10:06 59.86203 3.57501 16956 ft 262 kts 44°
2026-04-29 10:07 59.87385 3.60241 16956 ft 261 kts 44°
2026-04-29 10:07 59.88567 3.62975 16955 ft 260 kts 44°
2026-04-29 10:07 59.89740 3.65699 16955 ft 259 kts 44°
2026-04-29 10:07 59.90911 3.68421 16914 ft 260 kts 44°
2026-04-29 10:08 59.92099 3.71174 16762 ft 264 kts 44°
2026-04-29 10:08 59.93306 3.73979 16608 ft 268 kts 44°
2026-04-29 10:08 59.94526 3.76829 16456 ft 271 kts 45°
2026-04-29 10:08 59.95756 3.79705 16305 ft 274 kts 45°
2026-04-29 10:09 59.96997 3.82599 16128 ft 276 kts 45°
2026-04-29 10:09 59.98252 3.85532 15920 ft 280 kts 45°
2026-04-29 10:09 59.99521 3.88508 15693 ft 283 kts 45°
2026-04-29 10:09 60.00801 3.91513 15464 ft 286 kts 45°
2026-04-29 10:10 60.02093 3.94550 15238 ft 288 kts 45°
2026-04-29 10:10 60.03371 3.97642 15009 ft 288 kts 51°
2026-04-29 10:10 60.04181 4.01356 14789 ft 296 kts 69°
2026-04-29 10:10 60.04660 4.05379 14559 ft 299 kts 73°
2026-04-29 10:11 60.05078 4.09459 14329 ft 299 kts 74°
2026-04-29 10:11 60.05507 4.13534 14072 ft 299 kts 73°
2026-04-29 10:11 60.05985 4.17577 13814 ft 299 kts 72°
2026-04-29 10:11 60.06483 4.21610 13557 ft 298 kts 72°
2026-04-29 10:12 60.06971 4.25646 13302 ft 298 kts 72°
2026-04-29 10:12 60.07458 4.29672 13052 ft 298 kts 72°
2026-04-29 10:12 60.07944 4.33702 12804 ft 297 kts 72°
2026-04-29 10:12 60.08423 4.37710 12556 ft 295 kts 73°
2026-04-29 10:13 60.08904 4.41703 12317 ft 294 kts 73°
2026-04-29 10:13 60.09380 4.45680 12079 ft 293 kts 73°
2026-04-29 10:13 60.09845 4.49600 11852 ft 293 kts 73°
2026-04-29 10:13 60.10318 4.53577 11614 ft 293 kts 73°
2026-04-29 10:14 60.10788 4.57552 11382 ft 293 kts 73°
2026-04-29 10:14 60.11258 4.61512 11236 ft 291 kts 73°
2026-04-29 10:14 60.11716 4.65440 11086 ft 287 kts 75°
2026-04-29 10:14 60.11776 4.69443 10912 ft 291 kts 93°
2026-04-29 10:15 60.11431 4.73453 10758 ft 292 kts 98°
2026-04-29 10:15 60.11004 4.77431 10609 ft 291 kts 99°
2026-04-29 10:15 60.10268 4.81169 10419 ft 294 kts 123°
2026-04-29 10:15 60.08714 4.83832 10198 ft 299 kts 153°
2026-04-29 10:16 60.06700 4.84747 9984 ft 299 kts 181°
2026-04-29 10:16 60.04645 4.84337 9819 ft 296 kts 185°
2026-04-29 10:16 60.02592 4.84563 9645 ft 297 kts 170°
2026-04-29 10:16 60.00602 4.85641 9484 ft 296 kts 160°
2026-04-29 10:17 59.98732 4.87259 9272 ft 291 kts 146°
2026-04-29 10:17 59.97198 4.89807 8999 ft 287 kts 136°
2026-04-29 10:17 59.95735 4.92555 8732 ft 291 kts 135°
2026-04-29 10:17 59.94336 4.95464 8456 ft 289 kts 125°
2026-04-29 10:18 59.93281 4.98841 8193 ft 285 kts 117°
2026-04-29 10:18 59.92346 5.02304 7930 ft 283 kts 116°
2026-04-29 10:18 59.91621 5.05895 7671 ft 277 kts 101°
2026-04-29 10:18 59.91304 5.09661 7423 ft 275 kts 95°
2026-04-29 10:19 59.91133 5.13437 7157 ft 271 kts 85°
2026-04-29 10:19 59.91696 5.16890 6901 ft 259 kts 53°
2026-04-29 10:19 59.93015 5.19067 6655 ft 241 kts 19°
2026-04-29 10:19 59.94611 5.19342 6438 ft 227 kts 345°
2026-04-29 10:20 59.96066 5.18304 6225 ft 222 kts 338°
2026-04-29 10:20 59.97530 5.17358 6012 ft 220 kts 343°
2026-04-29 10:20 59.99013 5.16697 5807 ft 218 kts 348°
2026-04-29 10:20 60.00514 5.16316 5595 ft 217 kts 353°
2026-04-29 10:21 60.02023 5.16140 5407 ft 217 kts 356°
2026-04-29 10:21 60.03524 5.16045 5200 ft 215 kts 356°
2026-04-29 10:21 60.05016 5.15940 4990 ft 214 kts 356°
2026-04-29 10:21 60.06490 5.16010 4718 ft 213 kts 12°
2026-04-29 10:22 60.07724 5.17595 4463 ft 212 kts 44°
2026-04-29 10:22 60.08656 5.19886 4217 ft 212 kts 54°
2026-04-29 10:22 60.09413 5.22377 3962 ft 203 kts 59°
2026-04-29 10:22 60.10062 5.24790 3717 ft 190 kts 61°
2026-04-29 10:23 60.10865 5.26717 3462 ft 180 kts 26°
2026-04-29 10:23 60.12071 5.27165 3246 ft 178 kts
2026-04-29 10:23 60.13317 5.27159 3046 ft 180 kts 356°
2026-04-29 10:23 60.14537 5.26909 2813 ft 169 kts 352°
2026-04-29 10:24 60.15660 5.26476 2610 ft 167 kts 347°
2026-04-29 10:24 60.16810 5.25893 2432 ft 172 kts 348°
2026-04-29 10:24 60.18000 5.25365 2183 ft 178 kts 349°
2026-04-29 10:24 60.19133 5.24974 2082 ft 151 kts 355°
2026-04-29 10:25 60.20194 5.24814 1914 ft 153 kts 357°
2026-04-29 10:25 60.21250 5.24690 1696 ft 148 kts 353°
2026-04-29 10:25 60.22244 5.24288 1514 ft 143 kts 346°
2026-04-29 10:25 60.23132 5.23883 1409 ft 121 kts 349°
2026-04-29 10:26 60.23946 5.23629 1192 ft 119 kts 350°
2026-04-29 10:26 60.24763 5.23361 980 ft 118 kts 349°
2026-04-29 10:26 60.25580 5.23083 771 ft 120 kts 349°
2026-04-29 10:26 60.26384 5.22820 590 ft 114 kts 347°
2026-04-29 10:27 60.27893 5.22296 281 ft 110 kts 350°
2026-04-29 10:27 60.28635 5.22049 162 ft 99 kts 349°
2026-04-29 10:27 60.29087 5.21899 158 ft 39 kts 351°
2026-04-29 10:28 60.29259 5.21844 153 ft 19 kts 351°
2026-04-29 10:28 60.29355 5.21832 151 ft 11 kts 23°
2026-04-29 10:28 60.29384 5.21954 153 ft 10 kts 82°
2026-04-29 10:28 60.29388 5.22008 153 ft 0 kts 81°
2026-04-29 10:29 60.29393 5.22076 154 ft 8 kts 81°
2026-04-29 10:29 60.29401 5.22188 156 ft 9 kts 87°
2026-04-29 10:29 60.29356 5.22256 159 ft 10 kts 169°
2026-04-29 10:30 60.29283 5.22280 161 ft 12 kts 171°
2026-04-29 10:30 60.29195 5.22309 163 ft 13 kts 169°
2026-04-29 10:30 60.29100 5.22342 163 ft 15 kts 171°
2026-04-29 10:30 60.28988 5.22378 162 ft 17 kts 171°
2026-04-29 10:31 60.28873 5.22415 163 ft 16 kts 169°
2026-04-29 10:31 60.28757 5.22456 162 ft 17 kts 170°
2026-04-29 10:31 60.28643 5.22495 162 ft 15 kts 171°
2026-04-29 10:31 60.28550 5.22526 161 ft 13 kts 170°
2026-04-29 10:32 60.28464 5.22557 159 ft 11 kts 169°
2026-04-29 10:32 60.28397 5.22580 156 ft 10 kts 170°
2026-04-29 10:32 60.28362 5.22601 155 ft 4 kts 130°
2026-04-29 10:32 60.28364 5.22666 155 ft 6 kts 90°
2026-04-29 10:33 60.28364 5.22695 155 ft 0 kts 90°